Lexington Weather

Lexington, Massachusetts, USA

79°F
7/4/2020 12:52pm 
  • Lexington Conditions: Mostly cloudy
  • Temperature: 79.2°F / 26.2°CWarmer 6.7°F than last hour.
  • Dew Point: 67.3°FIncreased 1.6°Fsince last hour.
  • Relative Humidity: 67%Decreased 12.0% since last hour.
  • Wind: Calm, 10-min avg: Calm, gust: None
  • Barometer: 29.88 in Steady
  • Visibility: 10 miles
  • Rain Today: 0.01 in
  •   

Regional Weather Roundup
for Boston / Norton, MA

        
000
ASUS41 KBOX 031704
RWRBOX

REGIONAL WEATHER ROUNDUP
NATIONAL WEATHER SERVICE BOSTON/NORTON MA
100 PM EDT FRI JUL 03 2020

NOTE:  "FAIR" INDICATES FEW OR NO CLOUDS BELOW 12,000 FEET WITH NO 
SIGNIFICANT WEATHER AND/OR OBSTRUCTIONS TO VISIBILITY.

MAZALL-031800-
EASTERN MASSACHUSETTS
  
CITY           SKY/WX    TMP DP  RH WIND       PRES   REMARKS
BOSTON         CLOUDY    68  61  78 NE14      29.91S                  
BEVERLY        CLOUDY    65  61  87 NE14G25   29.91S                  
LAWRENCE       CLOUDY    68  61  78 NE15      29.94S                  
BEDFORD        CLOUDY    70  61  73 NE13G23   29.91R                  
BLUE HILL      NOT AVBL                                               
NORWOOD        CLOUDY    71  62  73 NE13G22   29.90S                  
MARSHFIELD     CLOUDY    66  66 100 NE8G18    29.90R                  
PLYMOUTH       NOT AVBL                                               
TAUNTON        CLOUDY    75  63  66 NE8       29.87S                  
NEW BEDFORD    CLOUDY    76  66  71 NE10G20   29.86R                  
$$

MAZALL-031800-
CAPE COD AND THE ISLANDS
  
CITY           SKY/WX    TMP DP  RH WIND       PRES   REMARKS
FALMOUTH       CLOUDY    68  64  88 N12G20    29.87R                  
HYANNIS        CLOUDY    72  65  78 N17G25    29.84R                  
CHATHAM        CLOUDY    71  66  84 VRB6      29.86R                  
PROVINCETOWN   CLOUDY    68  65  90 N12       29.88S                  
NANTUCKET      CLOUDY    73  67  81 N21       29.83R                  
MARTHAS VNYRD  CLOUDY    74  66  76 NE17      29.85R                  
$$
 
MAZALL-031800-
CENTRAL AND WESTERN MASSACHUSETTS
  
CITY           SKY/WX    TMP DP  RH WIND       PRES   REMARKS
WORCESTER      CLOUDY    68  63  84 NE7       29.92S                  
FITCHBURG      CLOUDY    69  63  81 NE7       29.92S                  
ORANGE         CLOUDY    74  67  78 E7        29.90R                  
SPRINGFIELD    CLOUDY    73  70  91 SE6       29.85S                  
WESTFIELD      LGT RAIN  78  70  76 NW6       29.85S                  
NORTH ADAMS    CLOUDY    78  69  73 S3        29.87F                  
PITTSFIELD     CLOUDY    75  68  78 VRB3      29.88F                  
$$
 
RIZALL-031800-
RHODE ISLAND
  
CITY           SKY/WX    TMP DP  RH WIND       PRES   REMARKS
PROVIDENCE     CLOUDY    76  66  71 NE15      29.88R                  
NEWPORT        CLOUDY    77  66  68 N10       29.86S                  
BLOCK ISLAND   MOSUNNY   74  67  78 NE13G22   29.86S                  
SMITHFIELD     CLOUDY    72  66  81 NE10      29.90R                  
WESTERLY       PTSUNNY   85  67  54 NE10G18   29.85R                  
$$
 
CTZALL-031800-
CONNECTICUT
  
CITY           SKY/WX    TMP DP  RH WIND       PRES   REMARKS
BRADLEY INTL   PTSUNNY   85  67  54 N7        29.83F                  
HARTFORD       PTSUNNY   86  68  54 CALM      29.82F                  
BRIDGEPORT     PTSUNNY   86  69  56 N6        29.84F HX  90           
DANBURY        PTSUNNY   82  70  65 NE7       29.87F                  
GROTON         CLOUDY    74  68  81 SW6       29.83S                  
NEW HAVEN      CLOUDY    83  71  67 CALM      29.83F                  
CHESTER        FAIR      90  66  45 CALM      29.85F HX  92           
MERIDEN        PTSUNNY   84  68  58 W5        29.83F                  
WILLIMANTIC    LGT RAIN  75  69  81 NE7       29.86R                  
OXFORD         PTSUNNY   80  70  71 N6        29.88F                  
$$

MEZ002-015-021-024-NHZ003-005-008-011-012-014-VTZ005-008-031800-
NORTHERN NEW ENGLAND
  
CITY           SKY/WX    TMP DP  RH WIND       PRES   REMARKS
PORTLAND ME    CLOUDY    69  60  73 E10       29.95R                  
BANGOR ME      CLOUDY    70  58  65 NE8       29.96S                  
CONCORD NH     CLOUDY    73  64  73 E14       29.92S                  
MANCHESTER NH  CLOUDY    71  62  73 E14       29.91R                  
NASHUA NH      CLOUDY    71  66  84 E9        29.92S                  
PORTSMOUTH NH  CLOUDY    68  58  68 NE14G25   29.92                   
JAFFREY NH     CLOUDY    69  64  84 VRB5      29.93S                  
KEENE NH       CLOUDY    74  67  78 VRB5      29.89S                  
BURLINGTON VT  MOSUNNY   82  65  56 NW9       29.87F                  
MT. WASHINGTON FOG       54  54 100 NW7         N/A  VSB 1/8          
$$

NYZ052-076-031800-
EASTERN NEW YORK
  
CITY           SKY/WX    TMP DP  RH WIND       PRES   REMARKS
ALBANY         PTSUNNY   81  69  67 CALM      29.87S                  
NEW YORK CITY  PTSUNNY   89  64  43 E3        29.83F HX  90           
$$
 
ANZALL-031800-
MARINE OBSERVATIONS
  
STATION/POSITION TIME  TEMP    WIND        PRES    VSBY  WAVE
                       AIR SEA DIR/SP/G                  HT/PER
                 (UTC) (F)     (DEG/KT/KT) (MB)    (MI)  (FT/S)
BOSTON BUOY      1650   63 65   20/ 16/ 19 1011.1R         5/ 6
BUZZARDS BAY     1600           40/ 16/ 18 1011.7R
NANTUCKET SOUND  1650   69 72  360/ 16/ 17 1009.9R         2/ 3
MASS BAY-STELLWA 1604   61      50/ 17/ 19 1010.3R  1 7/8  6/ 6
ISLE OF SHOALS   1600   61      50/ 21/ 24 1012.4R
S OF BLOCK IS    1626      71                N/A           4/ 3
$$

......................KEY.........................
  SKY/WX - SKY CONDITION/PRESENT WEATHER
  TMP    - TEMPERATURE IN FAHRENHEIT
  DWPT   - DEWPOINT IN FAHRENHEIT
  RH     - RELATIVE HUMIDITY IN PERCENT
  WIND   - DIRECTION AND SPEED IN MPH
  PRES   - MEAN SEA LEVEL PRESSURE IN INCHES OF HG
  WCI    - WIND CHILL INDEX
  VSB    - VISIBILITY IN MILES
  HX     - HEAT INDEX
  TC     - TEMPERATURE IN CELSIUS
  VRB    - VARIABLE WIND DIRECTION
  N/A    - NOT AVAILABLE
  
      

Other recent Regional Weather Roundups

Sat Jul 4, 12:05pm

Sat Jul 4, 11:04am

Sat Jul 4, 10:04am

Sat Jul 4, 9:04am

Sat Jul 4, 8:04am

Sat Jul 4, 7:04am

Sat Jul 4, 6:04am

Sat Jul 4, 5:04am

Sat Jul 4, 4:04am

Sat Jul 4, 3:05am

Sat Jul 4, 2:04am

Sat Jul 4, 1:04am

Sat Jul 4, 12:04am

Fri Jul 3, 11:04pm

Fri Jul 3, 10:04pm

Fri Jul 3, 9:04pm

Fri Jul 3, 8:04pm

Fri Jul 3, 7:04pm

Fri Jul 3, 6:04pm

Fri Jul 3, 5:04pm

Fri Jul 3, 4:04pm

Fri Jul 3, 3:04pm

Fri Jul 3, 2:04pm

Fri Jul 3, 12:04pm

Fri Jul 3, 11:04am

Fri Jul 3, 10:04am

Fri Jul 3, 9:04am

Fri Jul 3, 8:04am

Fri Jul 3, 7:04am

Fri Jul 3, 6:04am

Fri Jul 3, 5:04am

Fri Jul 3, 4:04am

Fri Jul 3, 3:04am

Fri Jul 3, 2:04am

Fri Jul 3, 1:04am

Fri Jul 3, 12:04am

Thu Jul 2, 11:05pm

Thu Jul 2, 10:04pm

Thu Jul 2, 9:04pm

Thu Jul 2, 8:04pm

Thu Jul 2, 7:05pm

Thu Jul 2, 6:04pm

Thu Jul 2, 5:05pm

Thu Jul 2, 4:04pm

Thu Jul 2, 3:04pm

Thu Jul 2, 2:04pm

Thu Jul 2, 1:05pm

Thu Jul 2, 12:04pm

Thu Jul 2, 11:04am

Thu Jul 2, 10:05am

Thu Jul 2, 9:05am

Thu Jul 2, 8:04am

Thu Jul 2, 7:04am

Thu Jul 2, 6:05am

Thu Jul 2, 5:04am

Thu Jul 2, 4:04am

Thu Jul 2, 3:04am

Thu Jul 2, 2:04am

Thu Jul 2, 1:04am

Thu Jul 2, 12:05am

Wed Jul 1, 11:05pm

Wed Jul 1, 10:04pm

Wed Jul 1, 9:04pm

Wed Jul 1, 8:04pm

Wed Jul 1, 7:04pm

Wed Jul 1, 6:04pm

Wed Jul 1, 5:05pm

Wed Jul 1, 4:04pm

Wed Jul 1, 3:04pm

Wed Jul 1, 2:04pm

Wed Jul 1, 1:04pm

Wed Jul 1, 12:04pm

Wed Jul 1, 11:04am

Wed Jul 1, 10:04am

Wed Jul 1, 9:04am

Wed Jul 1, 8:05am

Wed Jul 1, 7:04am

Wed Jul 1, 6:04am

Wed Jul 1, 5:04am

Wed Jul 1, 4:04am

Wed Jul 1, 3:04am

Wed Jul 1, 2:04am

Wed Jul 1, 1:04am

Wed Jul 1, 12:04am

Tue Jun 30, 11:04pm

Tue Jun 30, 10:05pm

Tue Jun 30, 9:04pm

Tue Jun 30, 8:05pm

Tue Jun 30, 7:05pm

Tue Jun 30, 6:04pm

Tue Jun 30, 5:04pm

Tue Jun 30, 4:04pm

Tue Jun 30, 3:04pm

Tue Jun 30, 2:04pm

Tue Jun 30, 1:04pm

Tue Jun 30, 12:04pm

Tue Jun 30, 11:04am

Tue Jun 30, 10:04am

Tue Jun 30, 9:04am

Tue Jun 30, 8:04am

Tue Jun 30, 7:04am

Tue Jun 30, 6:04am

Tue Jun 30, 5:04am

Tue Jun 30, 4:04am

Tue Jun 30, 3:04am

Tue Jun 30, 2:04am

Tue Jun 30, 1:04am

Tue Jun 30, 12:04am

Mon Jun 29, 11:04pm

Mon Jun 29, 10:05pm

Mon Jun 29, 9:04pm

Mon Jun 29, 8:05pm

Mon Jun 29, 7:04pm

Mon Jun 29, 6:04pm

Mon Jun 29, 5:04pm

Mon Jun 29, 4:05pm

Mon Jun 29, 3:04pm

Mon Jun 29, 2:04pm

Mon Jun 29, 1:04pm

Mon Jun 29, 12:04pm

Mon Jun 29, 11:04am

Mon Jun 29, 10:04am

Mon Jun 29, 9:04am

Mon Jun 29, 8:04am

Mon Jun 29, 7:04am

Mon Jun 29, 6:04am

Mon Jun 29, 5:04am

Mon Jun 29, 4:04am

Mon Jun 29, 3:04am

Mon Jun 29, 2:04am

Mon Jun 29, 1:04am

Mon Jun 29, 12:04am

Sun Jun 28, 11:05pm

Sun Jun 28, 10:04pm

Sun Jun 28, 9:05pm

Sun Jun 28, 8:04pm

Sun Jun 28, 7:04pm

Sun Jun 28, 6:04pm

Sun Jun 28, 5:04pm

Sun Jun 28, 4:04pm

Sun Jun 28, 3:04pm

Sun Jun 28, 2:05pm

Sun Jun 28, 1:04pm

Sun Jun 28, 12:04pm

Sun Jun 28, 11:04am

Sun Jun 28, 10:04am

Sun Jun 28, 9:04am

Sun Jun 28, 8:04am

Sun Jun 28, 7:04am

Sun Jun 28, 6:04am

Sun Jun 28, 5:04am

Sun Jun 28, 4:04am

Sun Jun 28, 3:04am

Sun Jun 28, 2:05am

Sun Jun 28, 1:04am

Sun Jun 28, 12:05am

Sat Jun 27, 11:04pm

Sat Jun 27, 10:04pm

Sat Jun 27, 9:04pm

Sat Jun 27, 8:04pm

Sat Jun 27, 7:04pm

Sat Jun 27, 6:04pm

Sat Jun 27, 5:04pm

Sat Jun 27, 4:05pm

Sat Jun 27, 3:04pm

Sat Jun 27, 2:04pm

Sat Jun 27, 1:05pm

Meta data:

ID: 081339c8-0823-4d0d-9da4-8a3e2630bc65
Link: https://api.weather.gov/products/081339c8-0823-4d0d-9da4-8a3e2630bc65